Погода Черновцы

Погода Черновцы : погода сейчас, прогноз погоды и архив. Всё, что Вы хотите узнать о погоде Черновцы!

Поиск расширенной информации на нашем сайте:

Другие новости

Новости СМИ2

Главная страница сайта

Новости сайта

02.10.2013

Напоминаем, что на нашем новом сайте вы можете получить высокодетализированные прогнозы погоды по пунктам России, СНГ и мира (включающие важные для авиации метеовеличины, такие как направление и скорость ветра, видимость, явления погоды, количество и форма облачности, нижняя и верхняя граница облачности), а также ознакомиться с разнообразными материалами по авиационной метеорологии и подборкой полезных ссылок на эту тему.

Сайт Метеоцентр.Азия посвящён разработке технологий оптимизации авиаметеорологического обслуживания, включая проектирование и перспективное создание нескольких автоматизированных авиаметеорологических систем:
- система выпуска высокодетальных прогностических карт явлений погоды для нижнего воздушного пространства по России и ближнему зарубежью;
- система верификации прогнозов TAF (выпускаемых синоптиками официальных АМСГ РФ и ближнего зарубежья) и AUTOTAF (выпускаемых сайтом Метеоцентр.Азия) - выявление ошибок, онлайн-сопоставление с фактической погодой METAR, автоматическое внесение коррективов в прогнозы при резком отклонении фактической погоды от прогноза, подсчёт оправдываемости прогнозов по элементам и в целом;
- система обработки, анализа и отображения авиаметеорологической информации для применения провайдерами метеорологической информации.

Рекомендуем: Анкеры для систем вентиляции сервис климат системы вентиляции Анкера.

Погода Черновцы - сегодня

Время (UTC), дата Ветер
(°,м/с) 
Видим.   Явления Облачность Т
(°С)
Тd
(°С)
f(%) Тe
(°С)
Pmin
(гПа)
dP
(гПа)
Po
(мм)
O2
(г/м3)
Тmin Tmax R s Состояние
почвы
00 20.03.17 290 (З) 45000 м    8/8 1500 м 
[Sc]
+3.5 -3.4 61 +2  1008.9  0.3  734  292           
03 20.03.17 230 (ЮЗ) 23000 м    4/0 средняя 
[Ac trans]
-0.5 -3.2 82 1008.9  -0.4  734  297           
06 20.03.17 240 (ЮЗ) 40000 м    9/4 700 м средняя 
[Sc|Ac trans]
+1.9 -3.1 69 1009.4  0.8  734  294  -0.6         
09 20.03.17 230 (ЮЗ) 30000 м  слаб. ливневой дождь  10/10 300 м кучево-дожд. 
[Cb cap]
+3.7 +1.9 88 +3  1009.4  0.2  735  292           
12 20.03.17 180 (Ю) 29000 м  слаб. ливневой дождь  10/10 300 м кучево-дожд. 
[Cb cap]
+5.4 +3.8 89 +6  1009  -0.2  734  290      0.4     
15 20.03.17 340 (С) 40000 м  {ливн. осадки}  9/9 1110 м 
[Sc]
+7.5 +4.6 82 +7  1009.8  735  288           
18 20.03.17 тихо ()   13000 м  {ливн. осадки}  9/9 1000 м 
[Sc]
+6.7 +5.1 90 +7  1012.1  2.1  737  289    +7.7  0.4     
21 20.03.17 240 (ЮЗ) 1600 м  в посл. час ливневой дождь  9/5 1000 м кучево-дожд., средняя 
[Cb calv|Ac trans]
+6.1 +5.7 97 +6  1012.7  0.6  737  290           
00 21.03.17 тихо ()   4500 м  дымка{ливн. осадки}  9/5 1000 м кучево-дожд., средняя 
[Cb calv|Ac trans]
+6 +5.6 97 +6  1012.9  0.1  737  290      0.3     
03 21.03.17 230 (ЮЗ) 3600 м  дымка  ясно 
+4.9 +4.4 97 +5  1013  737  291           
06 21.03.17 200 (Ю) 12000 м  {туман}  8/0 средняя 
[Ac trans]
+5.9 +5.2 95 +6  1013.2  0.3  737  290  +2.5    0.3     
09 21.03.17 110 (В) 30000 м  {туман}  8/0 верхняя 
[Ci fib]
+11.8 +7.1 73 +12  1012.6  0.1  738  284           
12 21.03.17 250 (З) 50000 м  {туман}  8/0 средняя 
[Ac trans]
+17.5 +3.4 39 +19  1011.4  -0.7  737  279           
15 21.03.17 110 (В) 50000 м    8/0 средняя 
[Ac trans]
+16.6 +4.4 44 +17  1011.6  0.1  737  279           
18 21.03.17 тихо ()   19000 м    6/0 средняя 
[Ac trans]
+11.6 +5.4 66 +12  1013.4  1.3  738  284    +18.2       
21 21.03.17 тихо ()   11000 м    ясно 
+9.2 +5 75 +9  1014.4  0.7  739  287           
00 22.03.17 тихо ()   12000 м    ясно 
+7.8 +4.9 82 +8  1014.8  0.3  739  289           
03 22.03.17 тихо ()   6000 м  дымка  ясно 
+5 +3.6 91 +5  1015.2  0.1  739  292           
06 22.03.17 110 (В) 13000 м    4/0 верхняя 
[Ci fib]
+6.6 +5.3 91 +6  1015.7  0.6  739  290  +4.3         
09 22.03.17 100 (В) 23000 м    8/0 верхняя 
[Ci fib]
+13.8 +7.1 64 +13  1014.7  -0.2  739  282           
12 22.03.17 110 (В) 35000 м    6/0 верхняя 
[Ci fib]
+20.3 +7.8 44 +20  1012.7  -1.3  738  276           
15 22.03.17 130 (ЮВ) 50000 м    8/0 верхняя 
[Ci fib]
+20.3 +6.3 40 +20  1012.7  738  276           
18 22.03.17 140 (ЮВ) 35000 м    8/0 верхняя 
[Ci fib]
+14.4 +6.9 61 +14  1014.4  1.1  739  282    +21.6       
21 22.03.17 300 (СЗ) 14000 м    4/0 верхняя 
[Ci fib]
+13 +8.4 74 +13  1016.5  1.9  740  283           
00 23.03.17 300 (СЗ) 9000 м  дымка  10/10 240 м 
[St]
+10.3 +9.1 92 +9  1018.6  1.7  742  286           
Время (UTC), дата Ветер
(°,м/с) 
Видим.   Явления Облачность Т
(°С)
Тd
(°С)
f(%) Тe
(°С)
Pmin
(гПа)
dP
(гПа)
Po
(мм)
O2
(г/м3)
Тmin Tmax R s Состояние
почвы

Для получения пояснительной информации подведите курсор к названию столбца.

ПОГОДА Черновцы - архив

Всё, что Вы хотите узнать о погоде Черновцы - удобно и подробно!

Выберите нужную дату (начиная с 1 января 2015* года) и нажмите кнопку "Найти".
Будут отображены архивные сводки погоды по пункту Черновцы, начиная с указанной даты.


Отображать данные в формате CSV (для использования в таблицах Excel)


Внимание! Наш архив погоды предназначен исключительно для личного некоммерческого использования в познавательных целях. Если Вам необходимы официальные справки о состоянии погоды (для производственных, юридических, коммерческих и т.п. целей), обращайтесь в органы Росгидромета.

*Примечание: данная дата относится к архиву по метеостанциям СССР (Россия, СНГ, Балтия).
Архив по метеостанциям Зарубежной Европы и Азии (кроме Китая) хранится 10 дней, по другим регионам земного шара (Китай, Африка, Америка, Австралия, Океания) - 1 день.

Черновцы - район местоположения метеостанции


Название, широта, долгота, высота метеостанции:
Черновцы 48.4°ш. 25.9°д. 246 м над ур. моря [Украина]

Дополнительная информация

В oтличие oт бoльшинства пoгoдных сайтoв мы публикуем пoдрoбную метеoинфoрмацию в детальнoм прoфессиoнальнoм фoрмате.

Характеристики температуры и влажнoсти вoздуха измеряются на высoте 2 м в тени вдали oт зданий и деревьев.
Скoрoсть ветра измеряется на высoте 10 м (на урoвне рoста челoвека скoрoсть ветра ниже в 1.5-2 раза). Если метеoстанция нахoдится в гoрoде или в лесу, тo скoрoсть ветра занижена на 2-4 м/с пo сравнению с oткрытым местoм. Скoрoсть ветра над акватoриями крупных рек и oзёр, а также на вершинах хoлмoв на 2-5 м/с выше, чем в oбычных услoвиях.
Атмoсфернoе давление в разных тoчках местнoсти мoжет значительнo oтличаться oт давления на метеoстанции, в зависимoсти oт услoвий рельефа (при пoдъёме на 10 м давление пoнижается примернo на 1 мм рт.ст.).